JAL599 RJTT-RJCC

Flight info

Callsign JAL599
Flight time 1h 9m
Altitude 41000
Route BRUCE AGRIS Y11 SAMBO Y119 OHMAR Y13 SIRAO Y139 NAVER
Aircraft A359/H-SDE2E3GHIJ3J4J5LM1ORWXY/LB1D1

Departure

Time 2026-02-18 13:24
Airport Tokyo Haneda International Airport (RJTT)

Arrival

Time 2026-02-18 14:33
Airport New Chitose Airport (RJCC)
Time Latitude Longitude Altitude Speed Heading
2026-02-18 13:02 35.54648 139.78417 31 ft 0 kts 59°
2026-02-18 13:10 35.54640 139.78401 30 ft 3 kts 58°
2026-02-18 13:11 35.54629 139.78379 30 ft 3 kts 58°
2026-02-18 13:11 35.54618 139.78359 29 ft 3 kts 58°
2026-02-18 13:11 35.54609 139.78339 28 ft 3 kts 62°
2026-02-18 13:11 35.54601 139.78316 29 ft 3 kts 83°
2026-02-18 13:12 35.54602 139.78294 27 ft 3 kts 115°
2026-02-18 13:12 35.54613 139.78274 28 ft 3 kts 141°
2026-02-18 13:12 35.54627 139.78262 30 ft 1 kts 149°
2026-02-18 13:12 35.54629 139.78261 28 ft 0 kts 149°
2026-02-18 13:16 35.54604 139.78278 26 ft 8 kts 150°
2026-02-18 13:16 35.54545 139.78319 31 ft 11 kts 150°
2026-02-18 13:16 35.54468 139.78372 31 ft 14 kts 150°
2026-02-18 13:16 35.54371 139.78440 31 ft 18 kts 149°
2026-02-18 13:17 35.54349 139.78675 31 ft 18 kts 60°
2026-02-18 13:17 35.54416 139.78817 31 ft 20 kts 60°
2026-02-18 13:17 35.54489 139.78974 31 ft 22 kts 59°
2026-02-18 13:18 35.54570 139.79141 31 ft 23 kts 59°
2026-02-18 13:18 35.54654 139.79313 29 ft 22 kts 59°
2026-02-18 13:18 35.54715 139.79440 30 ft 17 kts 59°
2026-02-18 13:18 35.54778 139.79570 30 ft 19 kts 59°
2026-02-18 13:19 35.54799 139.79648 30 ft 9 kts 99°
2026-02-18 13:19 35.54753 139.79701 30 ft 11 kts 144°
2026-02-18 13:19 35.54681 139.79755 30 ft 14 kts 150°
2026-02-18 13:19 35.54590 139.79819 30 ft 17 kts 150°
2026-02-18 13:20 35.54479 139.79897 28 ft 20 kts 150°
2026-02-18 13:20 35.54349 139.79988 30 ft 23 kts 150°
2026-02-18 13:20 35.54203 139.80092 30 ft 26 kts 149°
2026-02-18 13:20 35.54068 139.80189 30 ft 22 kts 150°
2026-02-18 13:21 35.53941 139.80279 30 ft 3 kts 150°
2026-02-18 13:21 35.53921 139.80298 30 ft 5 kts 133°
2026-02-18 13:21 35.53911 139.80344 30 ft 6 kts 83°
2026-02-18 13:22 35.53936 139.80402 30 ft 9 kts 61°
2026-02-18 13:22 35.53981 139.80470 30 ft 10 kts 30°
2026-02-18 13:22 35.54043 139.80457 30 ft 10 kts 332°
2026-02-18 13:22 35.54073 139.80436 30 ft 0 kts 331°
2026-02-18 13:23 35.54087 139.80426 30 ft 11 kts 331°
2026-02-18 13:23 35.54352 139.80242 30 ft 80 kts 330°
2026-02-18 13:23 35.55020 139.79765 56 ft 137 kts 332°
2026-02-18 13:24 35.55837 139.79185 809 ft 132 kts 332°
2026-02-18 13:24 35.56630 139.78682 1765 ft 125 kts 332°
2026-02-18 13:24 35.57483 139.78551 2556 ft 141 kts
2026-02-18 13:24 35.58304 139.79424 3117 ft 175 kts 43°
2026-02-18 13:25 35.59676 139.82415 3678 ft 227 kts 50°
2026-02-18 13:25 35.60439 139.84248 4049 ft 252 kts 58°
2026-02-18 13:25 35.60899 139.86417 4607 ft 274 kts 82°
2026-02-18 13:26 35.60946 139.88758 5431 ft 281 kts 86°
2026-02-18 13:26 35.60969 139.91180 6345 ft 285 kts 82°
2026-02-18 13:26 35.61463 139.93509 7229 ft 281 kts 57°
2026-02-18 13:26 35.62697 139.95306 8080 ft 274 kts 31°
2026-02-18 13:27 35.64398 139.96302 8959 ft 272 kts 13°
2026-02-18 13:27 35.66231 139.96827 9851 ft 274 kts
2026-02-18 13:27 35.68170 139.96987 10569 ft 285 kts 355°
2026-02-18 13:27 35.70216 139.96973 10958 ft 306 kts 353°
2026-02-18 13:28 35.72437 139.96869 11270 ft 329 kts 351°
2026-02-18 13:28 35.74749 139.96805 12170 ft 333 kts 352°
2026-02-18 13:28 35.77043 139.96769 13106 ft 337 kts 351°
2026-02-18 13:28 35.79404 139.96709 13905 ft 343 kts 350°
2026-02-18 13:29 35.84198 139.96550 15541 ft 347 kts 349°
2026-02-18 13:29 35.86623 139.96460 16443 ft 349 kts 348°
2026-02-18 13:29 35.89069 139.96366 17325 ft 352 kts 348°
2026-02-18 13:30 35.91526 139.96269 18178 ft 356 kts 347°
2026-02-18 13:30 35.94023 139.96169 18967 ft 360 kts 348°
2026-02-18 13:30 35.96494 139.96072 19756 ft 361 kts 348°
2026-02-18 13:30 35.99019 139.95972 20492 ft 365 kts 348°
2026-02-18 13:31 36.01568 139.95869 21174 ft 370 kts 348°
2026-02-18 13:31 36.04159 139.95764 21896 ft 374 kts 348°
2026-02-18 13:31 36.06769 139.95660 22584 ft 378 kts 348°
2026-02-18 13:31 36.09419 139.95554 23265 ft 382 kts 348°
2026-02-18 13:32 36.12083 139.95447 23863 ft 386 kts 348°
2026-02-18 13:32 36.14790 139.95338 24426 ft 391 kts 348°
2026-02-18 13:32 36.17529 139.95228 24941 ft 396 kts 348°
2026-02-18 13:32 36.20308 139.95116 25462 ft 401 kts 348°
2026-02-18 13:33 36.25914 139.94892 26498 ft 411 kts 348°
2026-02-18 13:33 36.28790 139.94777 27025 ft 416 kts 348°
2026-02-18 13:33 36.31695 139.94660 27587 ft 420 kts 348°
2026-02-18 13:34 36.34632 139.94542 28117 ft 425 kts 349°
2026-02-18 13:34 36.36601 139.94463 28415 ft 428 kts 349°
2026-02-18 13:34 36.39593 139.94343 28884 ft 433 kts 349°
2026-02-18 13:34 36.42624 139.94223 29353 ft 438 kts 349°
2026-02-18 13:35 36.46748 139.94237 29959 ft 448 kts 352°
2026-02-18 13:35 36.48815 139.94328 30204 ft 452 kts 353°
2026-02-18 13:35 36.53016 139.94573 30693 ft 459 kts 353°
2026-02-18 13:35 36.56223 139.94766 30992 ft 464 kts 353°
2026-02-18 13:36 36.58358 139.94886 31184 ft 467 kts 353°
2026-02-18 13:36 36.61623 139.95056 31485 ft 471 kts 353°
2026-02-18 13:36 36.64915 139.95213 31771 ft 475 kts 353°
2026-02-18 13:36 36.68235 139.95362 32049 ft 480 kts 352°
2026-02-18 13:37 36.76063 139.95697 32737 ft 489 kts 352°
2026-02-18 13:37 36.78365 139.95795 32938 ft 491 kts 352°
2026-02-18 13:37 36.81736 139.95940 33286 ft 492 kts 352°
2026-02-18 13:38 36.85162 139.96098 33614 ft 496 kts 353°
2026-02-18 13:38 36.88636 139.96584 33949 ft 507 kts
2026-02-18 13:38 36.92118 139.97350 34301 ft 509 kts
2026-02-18 13:38 36.95588 139.98194 34724 ft 508 kts
2026-02-18 13:39 36.99048 139.99083 35055 ft 509 kts
2026-02-18 13:39 37.02516 139.99994 35379 ft 509 kts
2026-02-18 13:39 37.05989 140.00912 35683 ft 510 kts
2026-02-18 13:39 37.09410 140.01814 36011 ft 510 kts
2026-02-18 13:40 37.12871 140.02718 36353 ft 508 kts
2026-02-18 13:40 37.16337 140.03619 36685 ft 508 kts
2026-02-18 13:40 37.19792 140.04513 36985 ft 508 kts
2026-02-18 13:40 37.23207 140.05394 37254 ft 508 kts
2026-02-18 13:41 37.30135 140.07185 37880 ft 508 kts
2026-02-18 13:41 37.33594 140.08080 38122 ft 509 kts
2026-02-18 13:41 37.37069 140.08982 38357 ft 509 kts
2026-02-18 13:42 37.40531 140.09882 38626 ft 509 kts
2026-02-18 13:42 37.43998 140.10785 38836 ft 509 kts
2026-02-18 13:42 37.47474 140.11692 39035 ft 509 kts
2026-02-18 13:42 37.50940 140.12597 39224 ft 509 kts
2026-02-18 13:43 37.57869 140.14407 39483 ft 513 kts
2026-02-18 13:43 37.61349 140.15319 39790 ft 510 kts
2026-02-18 13:43 37.64820 140.16232 40030 ft 509 kts
2026-02-18 13:44 37.68279 140.17138 40201 ft 509 kts
2026-02-18 13:44 37.71756 140.18045 40376 ft 509 kts
2026-02-18 13:44 37.75219 140.18950 40556 ft 509 kts
2026-02-18 13:44 37.78683 140.19858 40768 ft 508 kts
2026-02-18 13:45 37.85576 140.21666 40941 ft 510 kts
2026-02-18 13:45 37.89045 140.22578 40945 ft 509 kts
2026-02-18 13:46 37.95975 140.24402 40971 ft 510 kts
2026-02-18 13:46 38.02939 140.26238 40939 ft 511 kts
2026-02-18 13:47 38.09903 140.28082 40943 ft 511 kts
2026-02-18 13:47 38.16831 140.29919 40948 ft 512 kts
2026-02-18 13:48 38.23797 140.31769 40928 ft 512 kts
2026-02-18 13:48 38.30774 140.33629 40928 ft 513 kts
2026-02-18 13:49 38.41247 140.36449 40925 ft 514 kts
2026-02-18 13:49 38.48167 140.38638 40922 ft 517 kts
2026-02-18 13:50 38.55118 140.40953 40922 ft 516 kts
2026-02-18 13:50 38.62085 140.43241 40930 ft 517 kts
2026-02-18 13:51 38.69051 140.45498 40929 ft 516 kts
2026-02-18 13:51 38.75973 140.47733 40928 ft 516 kts
2026-02-18 13:52 38.82935 140.49981 40927 ft 515 kts
2026-02-18 13:52 38.89883 140.52240 40930 ft 514 kts
2026-02-18 13:53 39.03772 140.56760 40927 ft 516 kts
2026-02-18 13:54 39.10681 140.59018 40931 ft 516 kts
2026-02-18 13:55 39.21121 140.62445 40918 ft 517 kts
2026-02-18 13:55 39.28105 140.64743 40916 ft 518 kts
2026-02-18 13:56 39.35090 140.67049 40937 ft 519 kts
2026-02-18 13:56 39.42044 140.69349 40910 ft 519 kts
2026-02-18 13:57 39.52549 140.72837 40905 ft 520 kts
2026-02-18 13:57 39.59565 140.75171 40898 ft 521 kts
2026-02-18 13:58 39.66583 140.77500 40896 ft 521 kts
2026-02-18 13:58 39.73556 140.79822 40911 ft 520 kts
2026-02-18 13:59 39.80581 140.81902 40901 ft 516 kts
2026-02-18 13:59 39.87667 140.83332 40895 ft 514 kts
2026-02-18 14:00 39.94684 140.84576 40899 ft 513 kts
2026-02-18 14:00 40.01766 140.85833 40892 ft 515 kts
2026-02-18 14:01 40.12427 140.87783 40890 ft 516 kts
2026-02-18 14:02 40.19533 140.89100 40891 ft 515 kts
2026-02-18 14:02 40.26577 140.90406 40887 ft 514 kts
2026-02-18 14:03 40.33661 140.91721 40881 ft 514 kts
2026-02-18 14:03 40.40738 140.93036 40871 ft 513 kts
2026-02-18 14:04 40.47788 140.94349 40861 ft 511 kts
2026-02-18 14:04 40.54823 140.95662 40857 ft 510 kts
2026-02-18 14:05 40.65316 140.97627 40848 ft 509 kts
2026-02-18 14:05 40.72323 140.98941 40842 ft 508 kts
2026-02-18 14:06 40.79326 141.00257 40860 ft 508 kts
2026-02-18 14:06 40.86271 141.01567 40853 ft 507 kts
2026-02-18 14:07 40.93254 141.02887 40846 ft 506 kts
2026-02-18 14:07 41.00218 141.04205 40836 ft 506 kts
2026-02-18 14:08 41.07190 141.05527 40842 ft 505 kts
2026-02-18 14:08 41.14130 141.06847 40838 ft 503 kts
2026-02-18 14:09 41.24495 141.08820 40841 ft 504 kts
2026-02-18 14:10 41.31439 141.10147 40843 ft 503 kts
2026-02-18 14:10 41.38360 141.11473 40839 ft 502 kts
2026-02-18 14:11 41.44623 141.12675 40833 ft 501 kts
2026-02-18 14:11 41.51531 141.14003 40813 ft 502 kts
2026-02-18 14:12 41.58435 141.15334 40797 ft 500 kts
2026-02-18 14:12 41.65319 141.16666 40794 ft 502 kts
2026-02-18 14:13 41.75422 141.20718 40559 ft 505 kts 15°
2026-02-18 14:13 41.78680 141.22353 39644 ft 499 kts 16°
2026-02-18 14:13 41.81940 141.24022 38419 ft 502 kts 17°
2026-02-18 14:14 41.85218 141.25710 36805 ft 508 kts 17°
2026-02-18 14:14 41.88528 141.27416 35409 ft 509 kts 17°
2026-02-18 14:14 41.91824 141.29120 34136 ft 507 kts 17°
2026-02-18 14:14 41.95056 141.30995 32656 ft 509 kts 24°
2026-02-18 14:15 41.98012 141.33642 31178 ft 515 kts 37°
2026-02-18 14:15 42.03314 141.40144 28265 ft 518 kts 43°
2026-02-18 14:15 42.05894 141.43446 26902 ft 507 kts 43°
2026-02-18 14:16 42.10965 141.49962 24297 ft 491 kts 44°
2026-02-18 14:16 42.13562 141.52856 22858 ft 482 kts 34°
2026-02-18 14:16 42.16433 141.55171 21127 ft 478 kts 28°
2026-02-18 14:17 42.21963 141.59238 19671 ft 433 kts 28°
2026-02-18 14:17 42.24577 141.61170 19125 ft 426 kts 28°
2026-02-18 14:17 42.27161 141.63087 18530 ft 422 kts 28°
2026-02-18 14:18 42.29723 141.64993 17933 ft 418 kts 28°
2026-02-18 14:18 42.32259 141.66884 17304 ft 414 kts 28°
2026-02-18 14:18 42.34760 141.68752 16700 ft 408 kts 28°
2026-02-18 14:18 42.37232 141.70598 16116 ft 404 kts 29°
2026-02-18 14:19 42.39651 141.72410 15546 ft 403 kts 29°
2026-02-18 14:19 42.42079 141.74230 15051 ft 396 kts 29°
2026-02-18 14:19 42.44472 141.76027 14509 ft 391 kts 29°
2026-02-18 14:19 42.46836 141.77803 13955 ft 386 kts 28°
2026-02-18 14:20 42.49171 141.79559 13396 ft 382 kts 28°
2026-02-18 14:20 42.51486 141.81304 12756 ft 378 kts 28°
2026-02-18 14:20 42.53828 141.82838 12241 ft 371 kts 19°
2026-02-18 14:20 42.56314 141.83610 11897 ft 366 kts
2026-02-18 14:21 42.61337 141.83972 11248 ft 363 kts 359°
2026-02-18 14:21 42.63817 141.84054 11083 ft 349 kts 359°
2026-02-18 14:21 42.66195 141.84125 10919 ft 335 kts 359°
2026-02-18 14:22 42.68473 141.84189 10756 ft 321 kts 359°
2026-02-18 14:22 42.70663 141.84248 10619 ft 308 kts 359°
2026-02-18 14:22 42.72766 141.84304 10463 ft 296 kts 359°
2026-02-18 14:22 42.74803 141.84356 10146 ft 292 kts 358°
2026-02-18 14:23 42.76788 141.84407 9992 ft 287 kts 358°
2026-02-18 14:23 42.78786 141.84457 9976 ft 287 kts 358°
2026-02-18 14:23 42.80787 141.84501 9984 ft 287 kts 358°
2026-02-18 14:23 42.82770 141.84343 9982 ft 285 kts 351°
2026-02-18 14:24 42.84744 141.84049 9985 ft 286 kts 350°
2026-02-18 14:24 42.86719 141.83747 9936 ft 284 kts 350°
2026-02-18 14:24 42.88662 141.83384 9577 ft 281 kts 346°
2026-02-18 14:24 42.90550 141.82736 9135 ft 280 kts 341°
2026-02-18 14:25 42.94265 141.81281 8260 ft 279 kts 339°
2026-02-18 14:25 42.96057 141.80316 7880 ft 275 kts 331°
2026-02-18 14:25 42.97780 141.79213 7465 ft 274 kts 330°
2026-02-18 14:26 42.99502 141.78097 7050 ft 273 kts 330°
2026-02-18 14:26 43.01187 141.76923 6673 ft 268 kts 323°
2026-02-18 14:26 43.02450 141.75148 6223 ft 259 kts 297°
2026-02-18 14:26 43.03073 141.72887 5707 ft 252 kts 272°
2026-02-18 14:27 43.02923 141.70569 5255 ft 240 kts 253°
2026-02-18 14:27 43.02306 141.68550 4697 ft 229 kts 234°
2026-02-18 14:27 43.01226 141.67064 4250 ft 216 kts 215°
2026-02-18 14:27 42.99949 141.66068 3807 ft 209 kts 203°
2026-02-18 14:28 42.98594 141.65372 3391 ft 208 kts 197°
2026-02-18 14:28 42.97172 141.65277 2955 ft 208 kts 167°
2026-02-18 14:28 42.95812 141.65865 2844 ft 204 kts 165°
2026-02-18 14:28 42.94427 141.66357 3021 ft 201 kts 170°
2026-02-18 14:29 42.91764 141.66889 2935 ft 193 kts 177°
2026-02-18 14:29 42.90492 141.67116 2578 ft 177 kts 176°
2026-02-18 14:29 42.89322 141.67329 2291 ft 162 kts 176°
2026-02-18 14:30 42.88243 141.67518 2019 ft 153 kts 176°
2026-02-18 14:30 42.87195 141.67703 1794 ft 150 kts 176°
2026-02-18 14:30 42.86168 141.67885 1582 ft 145 kts 175°
2026-02-18 14:30 42.85210 141.68056 1389 ft 133 kts 175°
2026-02-18 14:31 42.84327 141.68212 1196 ft 123 kts 174°
2026-02-18 14:31 42.83508 141.68357 1031 ft 119 kts 175°
2026-02-18 14:31 42.82688 141.68497 832 ft 119 kts 174°
2026-02-18 14:31 42.81863 141.68631 654 ft 119 kts 173°
2026-02-18 14:32 42.81046 141.68782 526 ft 118 kts 171°
2026-02-18 14:32 42.80229 141.68948 380 ft 118 kts 172°
2026-02-18 14:32 42.79417 141.69085 251 ft 118 kts 174°
2026-02-18 14:32 42.78597 141.69228 104 ft 118 kts 173°
2026-02-18 14:33 42.77386 141.69437 88 ft 61 kts 173°
2026-02-18 14:33 42.77057 141.69494 85 ft 34 kts 173°
2026-02-18 14:33 42.76838 141.69497 82 ft 30 kts 189°
2026-02-18 14:34 42.76662 141.69415 67 ft 10 kts 207°
2026-02-18 14:34 42.76623 141.69362 70 ft 9 kts 240°